timestamp,wind_dir_avg,wind_spd_max_dir,wind_spd_avg,wind_spd_gust,battery_voltage,lat,long
2017-10-23 00:00:00+00:00,12.0,12.0,8.87,12.06,12.6,47.59359,-54.27349
2017-10-23 00:10:00+00:00,357.0,0.0,8.44,10.38,12.6,47.59359,-54.27349
2017-10-23 00:20:00+00:00,3.0,358.0,7.36,8.52,12.7,47.59359,-54.27349
2017-10-23 00:30:00+00:00,355.0,355.0,5.34,6.94,12.7,47.59359,-54.27349
2017-10-23 00:40:00+00:00,24.0,32.0,6.67,8.05,12.7,47.59359,-54.27349
2017-10-23 00:50:00+00:00,27.0,28.0,7.47,9.39,12.7,47.59359,-54.27349
2017-10-23 01:00:00+00:00,16.0,6.0,8.21,10.33,12.6,47.59359,-54.27349
2017-10-23 01:10:00+00:00,3.0,357.0,9.28,10.86,12.6,47.59359,-54.27349
2017-10-23 01:20:00+00:00,354.0,357.0,10.38,11.83,12.7,47.59359,-54.27349
2017-10-23 01:30:00+00:00,5.0,13.0,9.43,11.39,12.7,47.59359,-54.27349
2017-10-23 01:40:00+00:00,0.0,352.0,9.05,10.21,12.7,47.59359,-54.27349
2017-10-23 01:50:00+00:00,359.0,359.0,9.04,11.07,12.7,47.59359,-54.27349
2017-10-23 02:00:00+00:00,14.0,14.0,7.71,9.11,12.6,47.59359,-54.27349
2017-10-23 02:10:00+00:00,2.0,0.0,7.42,9.6,12.6,47.59359,-54.27349
2017-10-23 02:20:00+00:00,15.0,18.0,9.91,11.15,12.6,47.59359,-54.27349
2017-10-23 02:30:00+00:00,3.0,10.0,8.33,9.66,12.6,47.59359,-54.27349
2017-10-23 02:40:00+00:00,3.0,356.0,8.7,9.99,12.7,47.59359,-54.27349
2017-10-23 02:50:00+00:00,355.0,352.0,7.72,8.69,12.7,47.59359,-54.27349
2017-10-23 03:00:00+00:00,347.0,351.0,8.06,9.02,12.6,47.59359,-54.27349
2017-10-23 03:10:00+00:00,2.0,2.0,7.42,8.89,12.6,47.59359,-54.27349
2017-10-23 03:20:00+00:00,346.0,339.0,6.65,7.89,12.6,47.59359,-54.27349
2017-10-23 03:30:00+00:00,358.0,355.0,9.05,11.07,12.6,47.59359,-54.27349
2017-10-23 03:40:00+00:00,2.0,5.0,9.95,12.9,12.6,47.59359,-54.27349
2017-10-23 03:50:00+00:00,351.0,350.0,10.6,12.1,12.6,47.59359,-54.27349
2017-10-23 04:00:00+00:00,339.0,334.0,10.96,13.75,12.6,47.59359,-54.27349
2017-10-23 04:10:00+00:00,342.0,338.0,10.76,12.59,12.6,47.59359,-54.27349
2017-10-23 04:20:00+00:00,344.0,347.0,9.6,11.76,12.6,47.59359,-54.27349
2017-10-23 04:30:00+00:00,356.0,351.0,9.18,10.84,12.6,47.59359,-54.27349
2017-10-23 04:40:00+00:00,351.0,4.0,8.08,9.95,12.6,47.59359,-54.27349
2017-10-23 04:50:00+00:00,349.0,347.0,6.33,7.51,12.6,47.59359,-54.27349
2017-10-23 05:00:00+00:00,345.0,347.0,9.34,10.86,12.6,47.59359,-54.27349
2017-10-23 05:10:00+00:00,336.0,340.0,11.26,12.22,12.5,47.59359,-54.27349
2017-10-23 05:20:00+00:00,331.0,336.0,7.83,8.84,12.6,47.59359,-54.27349
2017-10-23 05:30:00+00:00,348.0,347.0,9.22,11.14,12.6,47.59359,-54.27349
2017-10-23 05:40:00+00:00,355.0,357.0,9.05,10.67,12.6,47.59359,-54.27349
2017-10-23 05:50:00+00:00,343.0,338.0,9.74,11.66,12.6,47.59359,-54.27349
2017-10-23 06:00:00+00:00,345.0,344.0,7.13,8.56,12.6,47.59359,-54.27349
2017-10-23 06:10:00+00:00,356.0,10.0,6.59,8.09,12.5,47.59359,-54.27349
2017-10-23 06:20:00+00:00,350.0,343.0,7.56,8.94,12.6,47.59359,-54.27349
2017-10-23 06:30:00+00:00,348.0,345.0,6.56,8.62,12.6,47.59359,-54.27349
2017-10-23 06:40:00+00:00,5.0,4.0,7.55,9.04,12.6,47.59359,-54.27349
2017-10-23 06:50:00+00:00,354.0,3.0,6.33,7.16,12.6,47.59359,-54.27349
2017-10-23 07:00:00+00:00,350.0,347.0,5.95,6.88,12.5,47.59359,-54.27349
2017-10-23 07:10:00+00:00,349.0,348.0,6.18,7.26,12.5,47.59359,-54.27349
2017-10-23 07:20:00+00:00,328.0,326.0,5.94,6.65,12.6,47.59359,-54.27349
2017-10-23 07:30:00+00:00,319.0,318.0,5.77,6.83,12.6,47.59359,-54.27349
2017-10-23 07:40:00+00:00,325.0,326.0,6.51,7.61,12.6,47.59359,-54.27349
2017-10-23 07:50:00+00:00,329.0,326.0,8.61,9.72,12.6,47.59359,-54.27349
2017-10-23 08:00:00+00:00,335.0,334.0,7.39,8.34,12.5,47.59359,-54.27349
2017-10-23 08:10:00+00:00,344.0,345.0,7.32,8.31,12.4,47.59359,-54.27349
2017-10-23 08:20:00+00:00,345.0,343.0,7.38,8.85,12.6,47.59359,-54.27349
2017-10-23 08:30:00+00:00,335.0,333.0,5.97,7.06,12.6,47.59359,-54.27349
2017-10-23 08:40:00+00:00,330.0,326.0,6.12,7.6,12.6,47.59359,-54.27349
2017-10-23 08:50:00+00:00,337.0,343.0,6.05,6.97,12.6,47.59359,-54.27349
2017-10-23 09:00:00+00:00,336.0,326.0,5.29,6.42,12.5,47.59359,-54.27349
2017-10-23 09:10:00+00:00,343.0,340.0,5.73,7.31,12.4,47.59359,-54.27349
2017-10-23 09:20:00+00:00,351.0,350.0,5.75,7.16,12.6,47.59359,-54.27349
2017-10-23 09:30:00+00:00,339.0,344.0,5.15,5.98,12.6,47.59359,-54.27349
2017-10-23 09:40:00+00:00,340.0,338.0,6.15,7.22,12.6,47.59359,-54.27349
2017-10-23 09:50:00+00:00,334.0,333.0,6.33,7.67,12.6,47.59359,-54.27349
2017-10-23 10:00:00+00:00,344.0,341.0,7.76,8.83,12.5,47.59359,-54.27349
2017-10-23 10:10:00+00:00,338.0,341.0,7.48,8.3,12.4,47.59359,-54.27349
2017-10-23 10:20:00+00:00,343.0,352.0,8.0,9.11,12.6,47.59359,-54.27349
2017-10-23 10:30:00+00:00,346.0,351.0,7.45,8.66,12.6,47.59359,-54.27349
2017-10-23 10:40:00+00:00,344.0,343.0,8.24,9.26,14.3,47.59359,-54.27349
2017-10-23 10:50:00+00:00,342.0,345.0,8.33,9.71,13.9,47.59359,-54.27349
2017-10-23 11:00:00+00:00,350.0,353.0,8.57,10.45,14.3,47.59359,-54.27349
2017-10-23 11:10:00+00:00,340.0,333.0,8.25,10.01,13.9,47.59359,-54.27349
2017-10-23 11:20:00+00:00,343.0,342.0,7.57,8.95,13.8,47.59359,-54.27349
2017-10-23 11:30:00+00:00,340.0,329.0,8.44,9.73,13.9,47.59359,-54.27349
2017-10-23 11:40:00+00:00,337.0,338.0,7.78,9.91,13.9,47.59359,-54.27349
2017-10-23 11:50:00+00:00,343.0,344.0,8.37,9.32,14.0,47.59359,-54.27349
2017-10-23 12:00:00+00:00,354.0,2.0,7.48,8.97,14.1,47.59359,-54.27349
2017-10-23 12:10:00+00:00,345.0,348.0,8.14,9.73,14.0,47.59359,-54.27349
2017-10-23 12:20:00+00:00,1.0,357.0,8.27,9.27,14.0,47.59359,-54.27349
2017-10-23 12:30:00+00:00,0.0,358.0,7.12,8.81,14.0,47.59359,-54.27349
2017-10-23 12:40:00+00:00,0.0,6.0,6.65,8.15,13.7,47.59359,-54.27349
2017-10-23 12:50:00+00:00,8.0,16.0,7.69,9.02,14.1,47.59359,-54.27349
2017-10-23 13:00:00+00:00,6.0,6.0,8.52,9.47,14.1,47.59359,-54.27349
2017-10-23 13:10:00+00:00,355.0,355.0,6.77,8.25,14.1,47.59359,-54.27349
2017-10-23 13:20:00+00:00,5.0,7.0,7.05,8.24,14.2,47.59359,-54.27349
2017-10-23 13:30:00+00:00,5.0,5.0,5.97,6.54,13.7,47.59359,-54.27349
2017-10-23 13:40:00+00:00,19.0,19.0,5.62,6.93,14.2,47.59359,-54.27349
2017-10-23 13:50:00+00:00,355.0,357.0,7.02,9.02,14.2,47.59359,-54.27349
2017-10-23 14:00:00+00:00,353.0,351.0,4.86,5.83,14.1,47.59359,-54.27349
2017-10-23 14:10:00+00:00,4.0,3.0,7.11,7.95,14.2,47.59359,-54.27349
2017-10-23 14:20:00+00:00,0.0,359.0,6.65,8.05,14.2,47.59359,-54.27349
2017-10-23 14:30:00+00:00,7.0,2.0,6.52,7.73,14.2,47.59359,-54.27349
2017-10-23 14:40:00+00:00,348.0,353.0,5.39,6.36,14.2,47.59359,-54.27349
2017-10-23 14:50:00+00:00,16.0,18.0,6.32,7.74,14.2,47.59359,-54.27349
2017-10-23 15:00:00+00:00,15.0,17.0,5.68,7.19,14.1,47.59359,-54.27349
2017-10-23 15:10:00+00:00,13.0,359.0,4.07,4.6,14.2,47.59359,-54.27349
2017-10-23 15:20:00+00:00,16.0,15.0,5.91,7.16,14.2,47.59359,-54.27349
2017-10-23 15:30:00+00:00,15.0,17.0,5.64,6.88,14.2,47.59359,-54.27349
2017-10-23 15:40:00+00:00,356.0,356.0,5.95,8.02,14.2,47.59359,-54.27349
2017-10-23 15:50:00+00:00,4.0,10.0,4.8,5.83,14.1,47.59359,-54.27349
2017-10-23 16:00:00+00:00,6.0,3.0,4.57,5.21,14.1,47.59359,-54.27349
2017-10-23 16:10:00+00:00,13.0,352.0,3.76,5.69,14.1,47.59359,-54.27349
2017-10-23 16:20:00+00:00,28.0,35.0,4.41,5.17,14.1,47.59359,-54.27349
2017-10-23 16:30:00+00:00,6.0,12.0,4.24,5.1,14.0,47.59359,-54.27349
2017-10-23 16:40:00+00:00,350.0,348.0,5.27,6.51,14.1,47.59359,-54.27349
2017-10-23 16:50:00+00:00,0.0,10.0,5.13,6.08,14.1,47.59359,-54.27349
2017-10-23 17:00:00+00:00,7.0,10.0,5.03,6.43,13.7,47.59359,-54.27349
2017-10-23 17:10:00+00:00,358.0,350.0,4.56,5.31,14.0,47.59359,-54.27349
2017-10-23 17:20:00+00:00,346.0,341.0,5.49,6.42,13.9,47.59359,-54.27349
2017-10-23 17:30:00+00:00,342.0,339.0,4.07,4.6,13.9,47.59359,-54.27349
2017-10-23 17:40:00+00:00,12.0,5.0,3.42,4.61,13.9,47.59359,-54.27349
2017-10-23 17:50:00+00:00,5.0,7.0,6.17,7.32,13.8,47.59359,-54.27349
2017-10-23 18:00:00+00:00,347.0,344.0,6.55,7.63,13.9,47.59359,-54.27349
2017-10-23 18:10:00+00:00,350.0,3.0,3.84,4.87,13.8,47.59359,-54.27349
2017-10-23 18:20:00+00:00,346.0,345.0,4.7,6.59,13.8,47.59359,-54.27349
2017-10-23 18:30:00+00:00,358.0,0.0,4.14,5.0,13.8,47.59359,-54.27349
2017-10-23 18:40:00+00:00,8.0,1.0,5.6,6.26,13.8,47.59359,-54.27349
2017-10-23 18:50:00+00:00,347.0,345.0,4.68,5.62,13.7,47.59359,-54.27349
2017-10-23 19:00:00+00:00,335.0,351.0,4.11,5.32,13.7,47.59359,-54.27349
2017-10-23 19:10:00+00:00,350.0,351.0,4.29,5.22,13.7,47.59359,-54.27349
2017-10-23 19:20:00+00:00,320.0,314.0,3.74,4.51,13.7,47.59359,-54.27349
2017-10-23 19:30:00+00:00,331.0,328.0,4.28,5.04,13.7,47.59359,-54.27349
2017-10-23 19:40:00+00:00,331.0,337.0,6.15,6.8,13.7,47.59359,-54.27349
2017-10-23 19:50:00+00:00,349.0,348.0,4.66,5.22,13.7,47.59359,-54.27349
2017-10-23 20:00:00+00:00,340.0,332.0,6.09,6.59,14.1,47.59359,-54.27349
2017-10-23 20:10:00+00:00,335.0,327.0,5.27,6.81,13.9,47.59359,-54.27349
2017-10-23 20:20:00+00:00,335.0,335.0,5.05,5.63,13.9,47.59359,-54.27349
2017-10-23 20:30:00+00:00,328.0,328.0,3.76,4.6,13.8,47.59359,-54.27349
2017-10-23 20:40:00+00:00,328.0,322.0,4.17,4.71,13.6,47.59359,-54.27349
2017-10-23 20:50:00+00:00,337.0,332.0,3.43,4.36,13.5,47.59359,-54.27349
2017-10-23 21:00:00+00:00,321.0,319.0,2.7,3.59,13.4,47.59359,-54.27349
2017-10-23 21:10:00+00:00,335.0,339.0,2.11,2.92,13.1,47.59359,-54.27349
2017-10-23 21:20:00+00:00,323.0,319.0,2.06,2.42,13.1,47.59359,-54.27349
2017-10-23 21:30:00+00:00,336.0,325.0,1.48,1.84,13.0,47.59359,-54.27349
2017-10-23 21:40:00+00:00,306.0,300.0,1.73,2.02,13.0,47.59359,-54.27349
2017-10-23 21:50:00+00:00,305.0,299.0,2.33,2.76,13.0,47.59359,-54.27349
2017-10-23 22:00:00+00:00,300.0,306.0,1.96,2.72,12.9,47.59359,-54.27349
2017-10-23 22:10:00+00:00,286.0,285.0,2.74,3.13,12.7,47.59359,-54.27349
2017-10-23 22:20:00+00:00,271.0,267.0,2.98,3.54,12.8,47.59359,-54.27349
2017-10-23 22:30:00+00:00,267.0,261.0,2.9,3.76,12.8,47.59359,-54.27349
2017-10-23 22:40:00+00:00,257.0,255.0,3.83,4.42,12.8,47.59359,-54.27349
2017-10-23 22:50:00+00:00,249.0,253.0,4.04,4.63,12.8,47.59359,-54.27349
2017-10-23 23:00:00+00:00,239.0,247.0,4.4,5.2,12.7,47.59359,-54.27349
2017-10-23 23:10:00+00:00,255.0,258.0,4.71,5.51,12.6,47.59359,-54.27349
2017-10-23 23:20:00+00:00,251.0,251.0,4.65,5.17,12.7,47.59359,-54.27349
2017-10-23 23:30:00+00:00,261.0,259.0,5.29,5.96,12.7,47.59359,-54.27349
2017-10-23 23:40:00+00:00,264.0,264.0,5.08,5.78,12.8,47.59359,-54.27349
2017-10-23 23:50:00+00:00,265.0,266.0,5.18,5.83,12.8,47.59359,-54.27349
